Location: Dead Woman Crossing
(43.5369°N, 106.3228°W)
Time: 13:06:41
(UTC+00:00)

M-CUBED/EXP-1 PRIME - Pass Details

Date: 05 July 2022
Orbit: 422 x 631 km, 101.7° (Epoch: 12 August)

Event Time Altitude Azimuth Distance (km) Brightness Sun altitude
Exits shadow 07:18:39 12° 79° (E) 1,440 ? -23.7°
Maximum altitude 07:19:45 14° 58° (ENE) 1,367 ? -23.6°
Drops below altitude 10° 07:21:32 10° 26° (NNE) 1,607 ? -23.6°
Sets 07:24:24 0° 0° (N) 2,531 ? -23.6°
